{"data":{"norad_id":67423,"epoch":"2026-09-19T14:58:20.112960Z","epoch_age_seconds":151099,"freshness":"FRESH","line1":"1 67423U 26005V   26262.62384390  .00005120  00000+0  19543-3 0  9990","line2":"2 67423  42.9999 222.9677 0001366 244.6742 115.3968 15.27585004 38355","mean_motion":15.27585004,"eccentricity":0.0001366,"inclination_deg":42.9999,"raan_deg":222.9677,"arg_perigee_deg":244.6742,"mean_anomaly_deg":115.3968,"bstar":0.00019543,"rev_number":3835,"period_min":94.266439918521,"perigee_km":482.09687633044,"apogee_km":483.97134827832,"semimajor_km":6861.1711123044,"source":"CELESTRAK","updated_at":"2026-09-20T09:00:43.523102Z"}}